Change the Weather History Date:

Friday, June 21, 2013

  Actual Average Record
Temperature  
Mean Temperature 68 °F -  
Max Temperature 82 °F 81 °F 96 °F (1949)
Min Temperature 53 °F 58 °F 42 °F (1940)
Cooling Degree Days 2    
Growing Degree Days 18 (Base 50)    
Moisture  
Dew Point 56 °F    
Average Humidity 70    
Maximum Humidity 100    
Minimum Humidity 41    
Precipitation  
Precipitation 0.00 in - - ()
Sea Level Pressure  
Sea Level Pressure 30.26 in    
Wind  
Wind Speed 1 mph (South)    
Max Wind Speed 8 mph    
Max Gust Speed -    
Visibility 9 miles    
Events      
Averages and records for this station are not official NWS values.
T = Trace of Precipitation, MM = Missing Value Source: NWS Daily Summary

Daily Weather History Graph

Daily Weather History Graph

Search for Another Location

Airport or City:

Trip Planner

Search our weather history database for the weather conditions in past years. The results will help you decide how hot, cold, wet, or windy it might be!

Date:

Astronomy

Jun. 21, 2013 Rise Set
Actual Time 5:27 AM EDT 8:33 PM EDT
Civil Twilight 4:54 AM EDT 9:06 PM EDT
Nautical Twilight 4:12 AM EDT 9:49 PM EDT
Astronomical Twilight 3:21 AM EDT 10:39 PM EDT
Moon 6:40 PM EDT (6/21) 3:41 AM EDT (6/21)
Length of Visible Light 16h 11m
Length of Day
15h 05m
Waxing Gibbous, 95% of the Moon is Illuminated
Jun 21
Waxing Gibbous
Jun 23
Full
Jun 30
Last Quarter
Jul 8
New
Jul 15
First Quarter

Hourly Weather History & Observations

Time (EDT) Temp. Heat Index Dew Point Humidity Pressure Visibility Wind Dir Wind Speed Gust Speed Precip Events Conditions
12:53 AM 57.9 °F - 55.9 °F 93% 30.28 in 10.0 mi Calm Calm - N/A   Clear
1:53 AM 55.9 °F - 55.0 °F 97% 30.27 in 10.0 mi Calm Calm - N/A   Clear
2:53 AM 57.0 °F - 55.0 °F 93% 30.27 in 10.0 mi Calm Calm - N/A   Clear
3:53 AM 55.0 °F - 54.0 °F 96% 30.27 in 6.0 mi Calm Calm - N/A   Clear
4:53 AM 55.0 °F - 53.1 °F 93% 30.27 in 10.0 mi Calm Calm - N/A   Clear
5:14 AM 53.6 °F - 53.6 °F 100% 30.27 in 1.5 mi Calm Calm - N/A   Clear
5:24 AM 53.6 °F - 53.6 °F 100% 30.27 in 4.0 mi Calm Calm - N/A   Clear
5:53 AM 54.0 °F - 53.1 °F 97% 30.28 in 10.0 mi Calm Calm - N/A   Clear
6:53 AM 57.9 °F - 55.0 °F 90% 30.29 in 10.0 mi Calm Calm - N/A   Clear
7:53 AM 63.0 °F - 55.9 °F 78% 30.29 in 10.0 mi Calm Calm - N/A   Clear
8:53 AM 71.1 °F - 57.0 °F 61% 30.29 in 10.0 mi WNW 3.5 mph - N/A   Clear
9:53 AM 75.0 °F - 55.9 °F 51% 30.28 in 10.0 mi Calm Calm - N/A   Clear
10:53 AM 75.9 °F - 55.0 °F 48% 30.28 in 10.0 mi Variable 4.6 mph - N/A   Clear
11:53 AM 78.1 °F - 57.9 °F 50% 30.28 in 10.0 mi South 8.1 mph - N/A   Clear
12:53 PM 80.1 °F 80.9 °F 60.1 °F 50% 30.29 in 10.0 mi Variable 3.5 mph - N/A   Clear
1:53 PM 80.1 °F 80.7 °F 59.0 °F 48% 30.26 in 10.0 mi Variable 6.9 mph - N/A   Clear
2:53 PM 82.9 °F 82.4 °F 57.0 °F 41% 30.27 in 10.0 mi Variable 4.6 mph - N/A   Clear
3:53 PM 81.0 °F 81.0 °F 57.0 °F 44% 30.25 in 10.0 mi Variable 5.8 mph - N/A   Clear
4:53 PM 82.0 °F 82.0 °F 57.9 °F 44% 30.23 in 10.0 mi Variable 4.6 mph - N/A   Clear
5:53 PM 81.0 °F 80.8 °F 55.9 °F 42% 30.22 in 10.0 mi South 6.9 mph - N/A   Clear
6:53 PM 79.0 °F - 57.0 °F 47% 30.22 in 10.0 mi South 4.6 mph - N/A   Clear
7:53 PM 75.0 °F - 57.9 °F 55% 30.22 in 10.0 mi Calm Calm - N/A   Clear
8:53 PM 70.0 °F - 59.0 °F 68% 30.22 in 10.0 mi South 3.5 mph - N/A   Clear
9:53 PM 66.9 °F - 59.0 °F 76% 30.24 in 10.0 mi Calm Calm - N/A   Clear
10:53 PM 66.0 °F - 57.0 °F 73% 30.25 in 10.0 mi SSE 3.5 mph - N/A   Clear
11:53 PM 63.0 °F - 57.9 °F 84% 30.25 in 10.0 mi Calm Calm - N/A   Clear